sat.trackr.live / text

‹ back to catalog

LINGQIAO VIDEO A

NORAD 40959 · 2015-057B

PAYLOAD ACTIVE UNKNOWN

§ Identity

Operator
Country
PRC
Launch date
2015-10-07
Launch site
JSC
Launch vehicle
Mass (kg)
RCS (m²)
0.45

External: N2YO · Heavens-Above · Gunter

§ Orbital elements

Epoch: 2026-09-20T04:15:45.789984Z

Period
97.46 min
Inclination
97.6719°
Eccentricity
0.0016016
Mean motion
14.77495617 rev/d
Perigee alt
626.0 km
Apogee alt
648.5 km
Semi-major
7,015.4 km
B*
3.3246e-5
RAAN
253.3407°
Arg perigee
325.7716°
Mean anomaly
34.2461°
Rev number
58,943

§ Raw data

LINGQIAO VIDEO A1 40959U 15057B   26263.17761331  .00000189  00000+0  33246-4 0  99922 40959  97.6719 253.3407 0016016 325.7716  34.2461 14.77495617589437

JSON: /api/v1/satellites/40959 · /tle

For live sub-satellite position, see the globe view (requires WebGL).

§ Visibility from observer

Set your observer location to see the next 7 days of passes ≥ 10°. The values pass through the URL so the page stays shareable.

No JS? Fill the form by hand. The geolocation button needs JavaScript.